Previsão horária em Lisboa

Hoje, 30 Julho, Sexta-feira

Tempo Temperatura Precipitação Vento Pressão Humidade
00:00 +15°C° 0 mm 5 m/s 758 mmHg 88%
01:00 +15°C° 0 mm 5 m/s 758 mmHg 89%
02:00 +15°C° 0 mm 5 m/s 758 mmHg 90%
03:00 +16°C° 0 mm 5 m/s 758 mmHg 90%
04:00 +16°C° 0 mm 5 m/s 758 mmHg 89%
05:00 +17°C° 0 mm 6 m/s 758 mmHg 89%
06:00 +20°C° 0 mm 6 m/s 758 mmHg 80%
07:00 +22°C° 0 mm 6 m/s 758 mmHg 71%
08:00 +23°C° 0 mm 6 m/s 759 mmHg 62%
09:00 +26°C° 0 mm 6 m/s 759 mmHg 56%
10:00 +28°C° 0 mm 7 m/s 759 mmHg 49%
11:00 +29°C° 0 mm 7 m/s 759 mmHg 43%
12:00 +29°C° 0 mm 7 m/s 758 mmHg 42%
13:00 +29°C° 0 mm 7 m/s 758 mmHg 40%
14:00 +29°C° 0 mm 7 m/s 758 mmHg 39%
15:00 +28°C° 0 mm 7 m/s 758 mmHg 43%
16:00 +26°C° 0 mm 7 m/s 758 mmHg 48%
17:00 +24°C° 0 mm 7 m/s 758 mmHg 52%
18:00 +22°C° 0 mm 7 m/s 759 mmHg 60%
19:00 +21°C° 0 mm 6 m/s 759 mmHg 69%
20:00 +19°C° 0 mm 6 m/s 759 mmHg 77%
21:00 +19°C° 0 mm 6 m/s 759 mmHg 80%
22:00 +17°C° 0 mm 6 m/s 759 mmHg 82%
23:00 +17°C° 0 mm 6 m/s 760 mmHg 85%

Amanhã, 31 Julho, Sábado

Tempo Temperatura Precipitação Vento Pressão Humidade
00:00 +17°C° 0 mm 6 m/s 759 mmHg 82%
01:00 +16°C° 0 mm 7 m/s 759 mmHg 79%
02:00 +16°C° 0 mm 7 m/s 759 mmHg 76%
03:00 +16°C° 0 mm 7 m/s 759 mmHg 76%
04:00 +16°C° 0 mm 7 m/s 759 mmHg 76%
05:00 +16°C° 0 mm 7 m/s 759 mmHg 76%
06:00 +17°C° 0 mm 7 m/s 760 mmHg 68%
07:00 +20°C° 0 mm 8 m/s 760 mmHg 60%
08:00 +21°C° 0 mm 8 m/s 760 mmHg 52%
09:00 +22°C° 0 mm 8 m/s 760 mmHg 48%
10:00 +24°C° 0 mm 8 m/s 760 mmHg 44%
11:00 +26°C° 0 mm 8 m/s 760 mmHg 40%
12:00 +24°C° 0 mm 9 m/s 760 mmHg 41%
13:00 +24°C° 0 mm 9 m/s 760 mmHg 42%
14:00 +24°C° 0 mm 9 m/s 760 mmHg 43%
15:00 +23°C° 0 mm 9 m/s 760 mmHg 45%
16:00 +22°C° 0 mm 9 m/s 760 mmHg 47%
17:00 +21°C° 0 mm 9 m/s 760 mmHg 48%
18:00 +20°C° 0 mm 8 m/s 760 mmHg 58%
19:00 +18°C° 0 mm 7 m/s 760 mmHg 68%
20:00 +17°C° 0 mm 7 m/s 761 mmHg 77%
21:00 +17°C° 0 mm 6 m/s 760 mmHg 80%
22:00 +16°C° 0 mm 6 m/s 760 mmHg 83%
23:00 +16°C° 0 mm 5 m/s 760 mmHg 86%

Depois de amanhã, 1 Agosto, Domingo

Tempo Temperatura Precipitação Vento Pressão Humidade
00:00 +16°C° 0 mm 5 m/s 760 mmHg 88%
01:00 +17°C° 0 mm 4 m/s 759 mmHg 90%
02:00 +17°C° 0 mm 4 m/s 759 mmHg 92%
03:00 +16°C° 0 mm 3 m/s 759 mmHg 92%
04:00 +16°C° 0 mm 3 m/s 759 mmHg 92%
05:00 +16°C° 0 mm 3 m/s 759 mmHg 92%
06:00 +18°C° 0 mm 4 m/s 759 mmHg 80%
07:00 +20°C° 0 mm 4 m/s 759 mmHg 68%
08:00 +22°C° 0 mm 5 m/s 759 mmHg 56%
09:00 +24°C° 0 mm 6 m/s 759 mmHg 49%
10:00 +26°C° 0 mm 6 m/s 759 mmHg 43%
11:00 +27°C° 0 mm 7 m/s 759 mmHg 36%
12:00 +27°C° 0 mm 7 m/s 759 mmHg 37%
13:00 +27°C° 0 mm 7 m/s 759 mmHg 39%
14:00 +27°C° 0 mm 8 m/s 758 mmHg 40%
15:00 +26°C° 0 mm 7 m/s 758 mmHg 44%
16:00 +24°C° 0 mm 7 m/s 758 mmHg 49%
17:00 +23°C° 0 mm 7 m/s 758 mmHg 53%
18:00 +21°C° 0 mm 6 m/s 758 mmHg 62%
19:00 +20°C° 0 mm 5 m/s 758 mmHg 71%
20:00 +18°C° 0 mm 4 m/s 759 mmHg 80%
21:00 +18°C° 0 mm 4 m/s 758 mmHg 83%
22:00 +18°C° 0 mm 4 m/s 758 mmHg 85%
23:00 +17°C° 0 mm 4 m/s 758 mmHg 87%

2 Agosto, Segunda-feira

Tempo Temperatura Precipitação Vento Pressão Humidade
00:00 +17°C° 0 mm 4 m/s 758 mmHg 88%
01:00 +17°C° 0 mm 3 m/s 757 mmHg 88%
02:00 +17°C° 0 mm 3 m/s 757 mmHg 89%
03:00 +17°C° 0 mm 3 m/s 757 mmHg 89%
04:00 +17°C° 0 mm 3 m/s 757 mmHg 89%
05:00 +17°C° 0 mm 4 m/s 757 mmHg 89%
06:00 +19°C° 0 mm 4 m/s 757 mmHg 76%
07:00 +21°C° 0 mm 5 m/s 757 mmHg 63%
08:00 +23°C° 0 mm 6 m/s 757 mmHg 50%
09:00 +24°C° 0 mm 7 m/s 757 mmHg 45%
10:00 +27°C° 0 mm 7 m/s 757 mmHg 41%
11:00 +28°C° 0 mm 8 m/s 757 mmHg 36%
12:00 +28°C° 0 mm 8 m/s 757 mmHg 36%
13:00 +29°C° 0 mm 8 m/s 757 mmHg 35%
14:00 +29°C° 0 mm 8 m/s 757 mmHg 35%
15:00 +27°C° 0 mm 8 m/s 757 mmHg 40%
16:00 +26°C° 0 mm 8 m/s 756 mmHg 44%
17:00 +23°C° 0 mm 8 m/s 756 mmHg 49%
18:00 +22°C° 0 mm 8 m/s 757 mmHg 60%
19:00 +20°C° 0 mm 7 m/s 757 mmHg 70%
20:00 +17°C° 0 mm 6 m/s 758 mmHg 81%
21:00 +17°C° 0 mm 6 m/s 758 mmHg 84%
22:00 +17°C° 0 mm 5 m/s 758 mmHg 87%
23:00 +16°C° 0 mm 5 m/s 758 mmHg 90%

3 Agosto, Terça-feira

Tempo Temperatura Precipitação Vento Pressão Humidade
00:00 +17°C° 0 mm 4 m/s 758 mmHg 91%
01:00 +17°C° 0 mm 4 m/s 758 mmHg 91%
02:00 +17°C° 0 mm 4 m/s 757 mmHg 92%
03:00 +17°C° 0 mm 4 m/s 758 mmHg 92%
04:00 +17°C° 0 mm 4 m/s 758 mmHg 92%
05:00 +17°C° 0 mm 3 m/s 758 mmHg 92%
06:00 +19°C° 0 mm 4 m/s 758 mmHg 81%
07:00 +21°C° 0 mm 4 m/s 759 mmHg 70%
08:00 +25°C° 0 mm 4 m/s 759 mmHg 58%
09:00 +27°C° 0 mm 4 m/s 759 mmHg 50%
10:00 +29°C° 0 mm 4 m/s 759 mmHg 42%
11:00 +33°C° 0 mm 4 m/s 759 mmHg 34%
12:00 +33°C° 0 mm 5 m/s 759 mmHg 33%
13:00 +33°C° 0 mm 6 m/s 758 mmHg 33%
14:00 +33°C° 0 mm 7 m/s 758 mmHg 32%
15:00 +31°C° 0 mm 8 m/s 758 mmHg 34%
16:00 +28°C° 0 mm 8 m/s 758 mmHg 37%
17:00 +26°C° 0 mm 9 m/s 758 mmHg 39%
18:00 +23°C° 0 mm 8 m/s 759 mmHg 49%
19:00 +21°C° 0 mm 7 m/s 759 mmHg 59%
20:00 +19°C° 0 mm 6 m/s 760 mmHg 69%
21:00 +19°C° 0 mm 6 m/s 760 mmHg 72%
22:00 +19°C° 0 mm 6 m/s 760 mmHg 75%
23:00 +19°C° 0 mm 6 m/s 760 mmHg 78%

4 Agosto, Quarta-feira

Tempo Temperatura Precipitação Vento Pressão Humidade
00:00 +19°C° 0 mm 5 m/s 759 mmHg 82%
01:00 +19°C° 0 mm 5 m/s 759 mmHg 86%
02:00 +19°C° 0 mm 5 m/s 759 mmHg 90%
03:00 +19°C° 0 mm 5 m/s 759 mmHg 89%
04:00 +19°C° 0 mm 5 m/s 759 mmHg 89%
05:00 +19°C° 0 mm 5 m/s 759 mmHg 89%
06:00 +21°C° 0 mm 5 m/s 760 mmHg 79%
07:00 +23°C° 0 mm 6 m/s 760 mmHg 69%
08:00 +26°C° 0 mm 7 m/s 760 mmHg 58%
09:00 +28°C° 0 mm 7 m/s 760 mmHg 52%
10:00 +29°C° 0 mm 7 m/s 760 mmHg 45%
11:00 +32°C° 0 mm 8 m/s 759 mmHg 39%
12:00 +32°C° 0 mm 8 m/s 759 mmHg 39%
13:00 +32°C° 0 mm 8 m/s 759 mmHg 39%
14:00 +32°C° 0 mm 9 m/s 759 mmHg 39%
15:00 +29°C° 0 mm 9 m/s 759 mmHg 42%
16:00 +28°C° 0 mm 9 m/s 759 mmHg 46%
17:00 +26°C° 0 mm 9 m/s 759 mmHg 50%
18:00 +24°C° 0 mm 8 m/s 760 mmHg 59%
19:00 +22°C° 0 mm 7 m/s 760 mmHg 68%
20:00 +20°C° 0 mm 7 m/s 760 mmHg 77%
21:00 +20°C° 0 mm 6 m/s 760 mmHg 79%
22:00 +20°C° 0 mm 6 m/s 760 mmHg 81%
23:00 +20°C° 0 mm 5 m/s 760 mmHg 83%
Mostrar mais

Necessitamos do seu Consentimento

A Meteoprog e os seus Fornecedores de Serviços podem armazenar e aceder a dados pessoais como cookies, identificadores do dispositivo ou outras tecnologias semelhantes existentes no seu dispositivo e processar estes dados para personalizar conteúdos e anúncios, assim como funcionalidades nas redes sociais e análise de tráfego.

  • Armazenar e/ou aceder a informações no seu dispositivo

    Os cookies, identificadores do dispositivo ou outras informações podem ser armazenados ou acedidos no seu dispositivo, para os fins acima indicados.

  • Anúncios e conteúdos personalizados, medição de anúncios e conteúdos, dados sobre o público-alvo e desenvolvimento de produtos

    Os anúncios e os conteúdos podem ser personalizados com base num perfil. Podem ser adicionados dados adicionais para uma maior personalização dos anúncios e dos conteúdos. A eficácia dos anúncios e dos conteúdos pode ser medida. Podem ser obtidas informações sobre o público que visualizou os anúncios e os conteúdos. Estes dados podem ser usados para desenvolver ou melhorar sistemas, softwares ou a experiência do utilizador.

Ao clicar em "Eu concordo”, permitirá o uso de cookies, identificadores do dispositivo e web beacons mencionados ou outras tecnologias semelhantes. As configurações do navegador do seu dispositivo podem ser alteradas.

Para certos fins, podem ser invocados interesses legítimos ao invés de consentimento. Pode ler mais informação sobre este assunto na nossa Política de Privacidade e Cookies.